FW9783 Weather Reports


time (UTC)temp
C
wind
direction
speed
KPH
gust
KPH
rain 1hr
cm
rain 24hr
cm
rain mn
cm
humidity
%
barometer
mb
20260906212004 33 188 0.0 11.3 0.00 0.00 0.00 33 1023.0
20260906211458 33 253 0.0 0.0 0.00 0.00 0.00 32 1023.0
20260906210954 33 216 1.6 16.1 0.00 0.00 0.00 32 1023.0
20260906210449 33 218 0.0 0.0 0.00 0.00 0.00 33 1022.8
20260906205947 34 128 0.0 4.8 0.00 0.00 0.00 33 1022.7
20260906205444 34 182 0.0 14.5 0.00 0.00 0.00 32 1023.1
20260906204940 33 176 8.0 16.1 0.00 0.00 0.00 32 1023.0
20260906204439 33 180 0.0 17.7 0.00 0.00 0.00 34 1023.0
20260906203938 33 203 0.0 17.7 0.00 0.00 0.00 34 1023.2
20260906203434 33 199 4.8 29.0 0.00 0.00 0.00 33 1023.3
20260906202931 35 202 0.0 11.3 0.00 0.00 0.00 33 1023.5
20260906202430 34 85 0.0 9.7 0.00 0.00 0.00 33 1023.1
20260906201925 34 207 0.0 24.1 0.00 0.00 0.00 33 1023.3
20260906201420 34 205 0.0 37.0 0.00 0.00 0.00 34 1023.4
20260906200915 34 226 4.8 16.1 0.00 0.00 0.00 34 1023.1
20260906200412 35 128 3.2 17.7 0.00 0.00 0.00 34 1023.3
20260906195911 34 198 1.6 17.7 0.00 0.00 0.00 33 1023.4
20260906195408 34 187 0.0 8.0 0.00 0.00 0.00 34 1023.3
20260906194903 33 104 0.0 12.9 0.00 0.00 0.00 34 1023.5
20260906194359 33 124 0.0 0.0 0.00 0.00 0.00 34 1023.3
20260906193854 34 128 4.8 29.0 0.00 0.00 0.00 34 1023.8
20260906193349 34 199 1.6 9.7 0.00 0.00 0.00 34 1023.7
20260906192845 33 160 0.0 8.0 0.00 0.00 0.00 35 1024.0
20260906192344 34 218 0.0 12.9 0.00 0.00 0.00 35 1023.8
20260906191844 34 206 0.0 16.1 0.00 0.00 0.00 34 1023.7
20260906191339 33 201 3.2 8.0 0.00 0.00 0.00 35 1024.2
20260906190833 33 200 0.0 0.0 0.00 0.00 0.00 35 1024.2
20260906190332 33 186 0.0 14.5 0.00 0.00 0.00 36 1024.2
20260906185833 33 150 0.0 20.9 0.00 0.00 0.00 35 1024.4
20260906185332 33 223 4.8 25.7 0.00 0.00 0.00 36 1024.4
20260906184826 33 206 4.8 14.5 0.00 0.00 0.00 36 1024.3
20260906184321 32 241 1.6 9.7 0.00 0.00 0.00 38 1024.3
20260906183817 33 163 4.8 12.9 0.00 0.00 0.00 37 1024.3
20260906183313 32 183 0.0 0.0 0.00 0.00 0.00 37 1024.7
20260906182813 32 173 0.0 4.8 0.00 0.00 0.00 37 1024.9
20260906182309 32 184 4.8 12.9 0.00 0.00 0.00 37 1024.9
20260906181809 33 162 3.2 16.1 0.00 0.00 0.00 37 1024.9
20260906181305 33 199 0.0 11.3 0.00 0.00 0.00 37 1024.6
20260906180806 33 112 1.6 14.5 0.00 0.00 0.00 38 1025.0
20260906180301 33 156 1.6 11.3 0.00 0.00 0.00 37 1025.0
20260906175758 32 192 0.0 12.9 0.00 0.00 0.00 38 1025.1
20260906175254 33 215 8.0 14.5 0.00 0.00 0.00 37 1025.1
20260906174752 33 150 4.8 16.1 0.00 0.00 0.00 38 1025.4
20260906174252 33 224 4.8 17.7 0.00 0.00 0.00 39 1025.2
20260906173747 32 212 0.0 0.0 0.00 0.00 0.00 40 1025.4
20260906173243 33 126 6.4 29.0 0.00 0.00 0.00 40 1025.3
20260906172742 33 223 1.6 14.5 0.00 0.00 0.00 40 1025.3
20260906172238 32 220 0.0 20.9 0.00 0.00 0.00 41 1025.2
20260906171738 32 113 0.0 4.8 0.00 0.00 0.00 41 1025.5
20260906171233 32 187 1.6 11.3 0.00 0.00 0.00 41 1025.5
20260906170729 32 209 0.0 12.9 0.00 0.00 0.00 41 1025.5
20260906170224 32 117 0.0 4.8 0.00 0.00 0.00 40 1025.4
20260906165721 32 258 0.0 14.5 0.00 0.00 0.00 42 1025.4
20260906165221 32 243 0.0 11.3 0.00 0.00 0.00 41 1025.5
20260906164720 32 202 0.0 4.8 0.00 0.00 0.00 42 1025.6
20260906164216 32 194 3.2 14.5 0.00 0.00 0.00 41 1025.7
20260906163711 32 244 0.0 14.5 0.00 0.00 0.00 41 1025.5
20260906163208 32 142 3.2 22.5 0.00 0.00 0.00 41 1025.6
20260906162704 32 177 11.3 20.9 0.00 0.00 0.00 41 1025.9
20260906162204 31 239 0.0 16.1 0.00 0.00 0.00 43 1025.9
20260906161658 32 173 0.0 9.7 0.00 0.00 0.00 43 1025.7
20260906161158 31 164 0.0 16.1 0.00 0.00 0.00 43 1025.6
20260906160657 31 195 1.6 12.9 0.00 0.00 0.00 44 1025.6
20260906160156 31 153 0.0 11.3 0.00 0.00 0.00 44 1025.5
20260906155654 31 134 0.0 17.7 0.00 0.00 0.00 44 1025.5
20260906155149 31 240 0.0 3.2 0.00 0.00 0.00 46 1025.3
20260906154645 31 179 0.0 1.6 0.00 0.00 0.00 46 1025.3
20260906154144 31 174 0.0 8.0 0.00 0.00 0.00 46 1025.4
20260906153643 30 215 0.0 11.3 0.00 0.00 0.00 46 1025.1
20260906153138 30 199 4.8 12.9 0.00 0.00 0.00 47 1025.4
20260906152633 30 197 1.6 12.9 0.00 0.00 0.00 47 1025.4
20260906152132 30 247 0.0 4.8 0.00 0.00 0.00 47 1025.3
20260906151627 30 216 0.0 16.1 0.00 0.00 0.00 48 1025.3
20260906151124 30 186 0.0 12.9 0.00 0.00 0.00 48 1025.2
20260906150618 29 211 0.0 9.7 0.00 0.00 0.00 49 1025.2
20260906150114 28 115 0.0 0.0 0.00 0.00 0.00 51 1025.4
20260906145613 28 207 1.6 4.8 0.00 0.00 0.00 51 1025.4
20260906145108 28 187 0.0 1.6 0.00 0.00 0.00 52 1025.3
20260906144602 28 233 0.0 0.0 0.00 0.00 0.00 52 1025.4
20260906144058 27 198 0.0 4.8 0.00 0.00 0.00 52 1025.1
20260906143557 27 266 3.2 9.7 0.00 0.00 0.00 53 1025.2
20260906143054 26 176 0.0 0.0 0.00 0.00 0.00 54 1025.4
20260906142553 26 217 0.0 1.6 0.00 0.00 0.00 54 1025.6
20260906142049 26 168 0.0 14.5 0.00 0.00 0.00 54 1025.2
20260906141547 26 238 0.0 1.6 0.00 0.00 0.00 54 1025.1
20260906141043 26 233 0.0 0.0 0.00 0.00 0.00 54 1025.2
20260906140542 26 244 0.0 0.0 0.00 0.00 0.00 55 1025.4
20260906140037 25 234 0.0 0.0 0.00 0.00 0.00 55 1025.2
20260906135534 25 133 0.0 0.0 0.00 0.00 0.00 55 1025.4
20260906135030 25 247 0.0 0.0 0.00 0.00 0.00 55 1025.1
20260906134525 25 176 0.0 0.0 0.00 0.00 0.00 56 1025.0
20260906134020 25 221 0.0 0.0 0.00 0.00 0.00 57 1025.2
20260906133516 24 191 0.0 0.0 0.00 0.00 0.00 57 1024.9
20260906133011 24 219 0.0 0.0 0.00 0.00 0.00 57 1024.7
20260906132506 24 173 0.0 3.2 0.00 0.00 0.00 57 1024.6
20260906132001 24 119 0.0 1.6 0.00 0.00 0.00 57 1024.4
20260906131456 23 178 1.6 12.9 0.00 0.00 0.00 57 1024.5
20260906130952 23 229 0.0 0.0 0.00 0.00 0.00 57 1024.3
20260906130452 23 143 0.0 12.9 0.00 0.00 0.00 58 1024.4
20260906125952 23 208 0.0 0.0 0.00 0.00 0.00 58 1024.4
20260906125449 23 179 0.0 0.0 0.00 0.00 0.00 58 1024.4
20260906124949 23 170 0.0 0.0 0.00 0.00 0.00 58 1024.6
20260906124445 23 211 0.0 0.0 0.00 0.00 0.00 58 1024.7
20260906123945 23 147 0.0 0.0 0.00 0.00 0.00 58 1024.7
20260906123444 23 217 0.0 0.0 0.00 0.00 0.00 58 1024.4
20260906122944 23 206 0.0 0.0 0.00 0.00 0.00 57 1024.5
20260906122439 23 171 0.0 0.0 0.00 0.00 0.00 57 1024.2
20260906121936 23 216 0.0 0.0 0.00 0.00 0.00 57 1024.1
20260906121432 23 196 0.0 0.0 0.00 0.00 0.00 57 1024.4
20260906120928 23 187 0.0 0.0 0.00 0.00 0.00 57 1024.1
20260906120423 23 191 0.0 0.0 0.00 0.00 0.00 57 1024.1
20260906115919 23 162 0.0 0.0 0.00 0.00 0.00 57 1023.7
20260906115415 23 190 0.0 0.0 0.00 0.00 0.00 57 1024.1
20260906114914 23 218 0.0 0.0 0.00 0.00 0.00 57 1024.2
20260906114409 23 182 0.0 0.0 0.00 0.00 0.00 57 1024.3
20260906113905 23 182 0.0 0.0 0.00 0.00 0.00 56 1024.2
20260906113403 23 173 0.0 0.0 0.00 0.00 0.00 56 1024.2
20260906112859 23 200 0.0 1.6 0.00 0.00 0.00 56 1024.1
20260906112355 24 201 0.0 0.0 0.00 0.00 0.00 56 1024.0
20260906111855 24 201 0.0 0.0 0.00 0.00 0.00 56 1024.1
20260906111355 24 155 0.0 0.0 0.00 0.00 0.00 56 1024.2
20260906110850 24 206 0.0 0.0 0.00 0.00 0.00 56 1024.1
20260906110346 24 185 0.0 0.0 0.00 0.00 0.00 55 1024.2
20260906105844 24 236 0.0 0.0 0.00 0.00 0.00 55 1024.3
20260906105340 24 186 0.0 0.0 0.00 0.00 0.00 55 1024.1
20260906104836 24 214 0.0 0.0 0.00 0.00 0.00 55 1023.8
20260906104334 24 225 0.0 0.0 0.00 0.00 0.00 55 1023.8
20260906103833 25 215 0.0 1.6 0.00 0.00 0.00 54 1024.0
20260906103331 25 191 0.0 1.6 0.00 0.00 0.00 54 1023.8
20260906102828 25 207 0.0 0.0 0.00 0.00 0.00 54 1023.7
20260906102326 25 210 0.0 0.0 0.00 0.00 0.00 54 1024.0
20260906101822 25 169 0.0 0.0 0.00 0.00 0.00 54 1024.0
20260906101317 25 199 0.0 0.0 0.00 0.00 0.00 54 1023.8
20260906100813 25 209 0.0 0.0 0.00 0.00 0.00 54 1023.7
20260906100311 25 166 0.0 1.6 0.00 0.00 0.00 54 1023.6
20260906095807 25 203 0.0 0.0 0.00 0.00 0.00 54 1023.5
20260906095305 25 231 0.0 0.0 0.00 0.00 0.00 53 1023.7
20260906094801 25 206 0.0 1.6 0.00 0.00 0.00 53 1023.6
20260906094256 25 210 0.0 14.5 0.00 0.00 0.00 53 1023.7
20260906093753 25 160 0.0 0.0 0.00 0.00 0.00 53 1023.7
20260906093248 25 196 0.0 0.0 0.00 0.00 0.00 53 1024.1
20260906092744 25 192 0.0 9.7 0.00 0.00 0.00 53 1023.8
20260906092244 25 211 0.0 0.0 0.00 0.00 0.00 53 1023.8
20260906091739 25 170 0.0 0.0 0.00 0.00 0.00 53 1023.8
20260906091236 25 206 0.0 0.0 0.00 0.00 0.00 53 1023.8
20260906090732 25 217 0.0 0.0 0.00 0.00 0.00 53 1023.8
20260906090231 25 218 0.0 1.6 0.00 0.00 0.00 53 1023.8
20260906085730 25 197 0.0 0.0 0.00 0.00 0.00 53 1023.7
20260906085229 25 204 0.0 0.0 0.00 0.00 0.00 53 1023.6
20260906084725 25 181 0.0 0.0 0.00 0.00 0.00 52 1023.7
20260906084224 25 239 0.0 1.6 0.00 0.00 0.00 52 1023.7
20260906083720 25 318 0.0 0.0 0.00 0.00 0.00 52 1024.0
20260906083215 25 203 0.0 0.0 0.00 0.00 0.00 52 1023.7
20260906082710 25 200 0.0 0.0 0.00 0.00 0.00 52 1024.0
20260906082205 26 178 0.0 0.0 0.00 0.00 0.00 52 1023.8
20260906081701 26 192 0.0 0.0 0.00 0.00 0.00 52 1024.0
20260906081156 26 206 0.0 0.0 0.00 0.00 0.00 52 1023.8
20260906080652 26 174 0.0 0.0 0.00 0.00 0.00 51 1024.1
20260906080148 26 181 0.0 0.0 0.00 0.00 0.00 51 1024.1
20260906075648 26 247 0.0 0.0 0.00 0.00 0.00 51 1023.5
20260906075142 26 178 0.0 0.0 0.00 0.00 0.00 51 1023.7
20260906074638 26 175 0.0 1.6 0.00 0.00 0.00 50 1023.7
20260906074137 26 226 0.0 0.0 0.00 0.00 0.00 50 1023.7
20260906073632 26 184 0.0 12.9 0.00 0.00 0.00 50 1023.7
20260906073127 26 207 0.0 0.0 0.00 0.00 0.00 50 1023.8
20260906072622 26 199 0.0 1.6 0.00 0.00 0.00 50 1023.7
20260906072119 26 176 0.0 0.0 0.00 0.00 0.00 50 1024.0
20260906071615 26 171 0.0 0.0 0.00 0.00 0.00 50 1023.8
20260906071115 26 209 0.0 0.0 0.00 0.00 0.00 50 1023.8
20260906070612 26 198 0.0 0.0 0.00 0.00 0.00 49 1024.3
20260906070107 26 197 0.0 0.0 0.00 0.00 0.00 49 1023.7
20260906065606 26 209 0.0 0.0 0.00 0.00 0.00 49 1024.0
20260906065102 26 203 0.0 3.2 0.00 0.00 0.00 49 1024.0
20260906064557 27 171 0.0 0.0 0.00 0.00 0.00 48 1024.0
20260906064052 27 157 0.0 4.8 0.00 0.00 0.00 48 1024.0
20260906063547 27 202 0.0 1.6 0.00 0.00 0.00 48 1024.0
20260906063044 27 236 0.0 1.6 0.00 0.00 0.00 48 1024.1
20260906062539 27 204 0.0 3.2 0.00 0.00 0.00 48 1024.2
20260906062038 27 229 0.0 0.0 0.00 0.00 0.00 48 1024.0
20260906061535 27 213 0.0 17.7 0.00 0.00 0.00 48 1024.0
20260906061033 27 226 1.6 3.2 0.00 0.00 0.00 48 1024.0
20260906060530 27 221 0.0 12.9 0.00 0.00 0.00 48 1023.6
20260906060027 27 219 0.0 3.2 0.00 0.00 0.00 47 1024.0
20260906055523 27 203 0.0 1.6 0.00 0.00 0.00 47 1023.8
20260906055018 27 202 9.7 25.7 0.00 0.00 0.00 47 1024.0
20260906054518 27 129 0.0 8.0 0.00 0.00 0.00 47 1023.8
20260906054013 27 128 0.0 1.6 0.00 0.00 0.00 46 1024.1
20260906053510 28 206 0.0 0.0 0.00 0.00 0.00 46 1024.0
20260906053005 28 210 0.0 11.3 0.00 0.00 0.00 46 1024.0
20260906052501 28 184 0.0 11.3 0.00 0.00 0.00 45 1023.7
20260906051958 28 87 4.8 9.7 0.00 0.00 0.00 45 1023.7
20260906051453 28 211 0.0 11.3 0.00 0.00 0.00 45 1023.6
20260906050948 28 143 0.0 9.7 0.00 0.00 0.00 45 1023.7
20260906050448 28 205 0.0 1.6 0.00 0.00 0.00 44 1023.8
20260906045947 28 158 0.0 11.3 0.00 0.00 0.00 44 1024.1
20260906045446 28 192 0.0 14.5 0.00 0.00 0.00 44 1023.7
20260906044942 28 199 0.0 3.2 0.00 0.00 0.00 44 1024.0
20260906044437 28 185 0.0 4.8 0.00 0.00 0.00 43 1024.1
20260906043933 29 354 0.0 3.2 0.00 0.00 0.00 43 1024.0
20260906043429 29 199 0.0 14.5 0.00 0.00 0.00 43 1023.8
20260906042924 29 230 0.0 3.2 0.00 0.00 0.00 43 1024.1
20260906042423 29 214 4.8 16.1 0.00 0.00 0.00 43 1023.7
20260906041918 29 152 0.0 3.2 0.00 0.00 0.00 43 1024.0
20260906041415 29 207 0.0 0.0 0.00 0.00 0.00 43 1024.0
20260906040914 29 218 0.0 0.0 0.00 0.00 0.00 42 1023.7
20260906040410 30 233 6.4 12.9 0.00 0.00 0.00 42 1024.0
20260906035905 30 84 0.0 1.6 0.00 0.00 0.00 41 1024.0
20260906035400 30 219 0.0 11.3 0.00 0.00 0.00 41 1024.0
20260906034856 30 239 0.0 1.6 0.00 0.00 0.00 41 1023.8
20260906034355 30 174 0.0 0.0 0.00 0.00 0.00 40 1023.8
20260906033852 30 172 0.0 3.2 0.00 0.00 0.00 40 1023.8
20260906033351 30 202 1.6 20.9 0.00 0.00 0.00 40 1023.7
20260906032847 30 204 3.2 11.3 0.00 0.00 0.00 40 1023.7
20260906032343 30 32 0.0 17.7 0.00 0.00 0.00 40 1023.5
20260906031838 30 168 0.0 17.7 0.00 0.00 0.00 40 1023.6
20260906031333 30 182 0.0 12.9 0.00 0.00 0.00 39 1023.6
20260906030833 30 193 3.2 11.3 0.00 0.00 0.00 39 1023.5
20260906030328 30 170 0.0 12.9 0.00 0.00 0.00 39 1023.5
20260906025823 30 173 0.0 14.5 0.00 0.00 0.00 39 1023.0
20260906025317 30 173 0.0 0.0 0.00 0.00 0.00 40 1023.0
20260906024816 30 186 0.0 0.0 0.00 0.00 0.00 40 1022.8
20260906024315 30 116 0.0 3.2 0.00 0.00 0.00 40 1022.6
20260906023811 30 166 0.0 0.0 0.00 0.00 0.00 40 1022.7
20260906023306 31 187 0.0 1.6 0.00 0.00 0.00 40 1022.4
20260906022802 31 159 0.0 1.6 0.00 0.00 0.00 40 1022.6
20260906022257 31 171 0.0 0.0 0.00 0.00 0.00 40 1022.3
20260906021753 31 196 0.0 14.5 0.00 0.00 0.00 40 1022.5
20260906021252 31 199 0.0 12.9 0.00 0.00 0.00 39 1022.3
20260906020746 31 171 0.0 11.3 0.00 0.00 0.00 39 1022.5
20260906020246 31 224 1.6 8.0 0.00 0.00 0.00 41 1022.3
20260906015741 31 200 0.0 0.0 0.00 0.00 0.00 41 1022.4
20260906015239 31 203 0.0 1.6 0.00 0.00 0.00 41 1022.5
20260906014740 31 209 0.0 0.0 0.00 0.00 0.00 40 1022.2
20260906014235 31 211 0.0 9.7 0.00 0.00 0.00 40 1022.1
20260906013731 32 215 0.0 9.7 0.00 0.00 0.00 38 1021.8
20260906013231 31 210 0.0 0.0 0.00 0.00 0.00 38 1021.8
20260906012726 32 199 0.0 0.0 0.00 0.00 0.00 38 1021.6
20260906012221 32 166 0.0 8.0 0.00 0.00 0.00 37 1021.8
20260906011717 32 185 0.0 0.0 0.00 0.00 0.00 37 1021.8
20260906011211 32 196 0.0 0.0 0.00 0.00 0.00 37 1021.8
20260906010707 32 229 0.0 0.0 0.00 0.00 0.00 36 1021.6
20260906010203 32 176 0.0 1.6 0.00 0.00 0.00 36 1021.8
20260906005702 32 217 0.0 0.0 0.00 0.00 0.00 36 1021.7
20260906005202 32 197 0.0 0.0 0.00 0.00 0.00 36 1021.6
20260906004701 32 204 0.0 1.6 0.00 0.00 0.00 36 1021.6
20260906004156 32 101 0.0 4.8 0.00 0.00 0.00 36 1021.9
20260906003652 32 128 0.0 0.0 0.00 0.00 0.00 36 1021.4
20260906003147 32 128 0.0 4.8 0.00 0.00 0.00 36 1021.6
20260906002647 33 208 0.0 0.0 0.00 0.00 0.00 36 1021.4
20260906002142 33 221 1.6 12.9 0.00 0.00 0.00 36 1021.8
20260906001638 33 293 0.0 4.8 0.00 0.00 0.00 36 1021.5
20260906001137 33 131 0.0 8.0 0.00 0.00 0.00 35 1021.6
20260906000633 33 198 0.0 0.0 0.00 0.00 0.00 33 1021.4
20260906000129 33 139 0.0 0.0 0.00 0.00 0.00 33 1021.2
20260905235627 33 166 0.0 0.0 0.00 0.00 0.00 33 1021.1
20260905235122 34 144 0.0 0.0 0.00 0.00 0.00 33 1021.1
20260905234618 34 203 0.0 4.8 0.00 0.00 0.00 33 1020.9
20260905234114 34 207 0.0 12.9 0.00 0.00 0.00 32 1020.9
20260905233614 34 211 0.0 0.0 0.00 0.00 0.00 32 1020.9
20260905233108 34 204 0.0 8.0 0.00 0.00 0.00 32 1020.6
20260905232603 35 186 3.2 17.7 0.00 0.00 0.00 32 1020.6
20260905232059 35 191 0.0 12.9 0.00 0.00 0.00 31 1020.8
20260905231554 35 149 0.0 1.6 0.00 0.00 0.00 31 1020.5
20260905231050 35 191 0.0 0.0 0.00 0.00 0.00 30 1020.7
20260905230550 35 199 0.0 0.0 0.00 0.00 0.00 30 1020.7
20260905230048 35 140 0.0 1.6 0.00 0.00 0.00 31 1020.7
20260905225543 35 183 0.0 9.7 0.00 0.00 0.00 30 1020.8
20260905225038 35 180 0.0 3.2 0.00 0.00 0.00 31 1020.5
20260905224537 35 221 0.0 8.0 0.00 0.00 0.00 31 1020.7
20260905224037 35 224 0.0 0.0 0.00 0.00 0.00 31 1020.5
20260905223535 36 198 1.6 22.5 0.00 0.00 0.00 31 1020.5
20260905223031 35 196 0.0 17.7 0.00 0.00 0.00 31 1020.7
20260905222531 35 183 6.4 24.1 0.00 0.00 0.00 31 1020.6
20260905222026 36 233 0.0 0.0 0.00 0.00 0.00 30 1020.5
20260905221522 36 187 0.0 29.0 0.00 0.00 0.00 30 1020.7
20260905221018 36 216 8.0 12.9 0.00 0.00 0.00 29 1020.7
20260905220514 36 242 0.0 14.5 0.00 0.00 0.00 29 1020.7
20260905220010 37 164 1.6 22.5 0.00 0.00 0.00 29 1020.8
20260905215504 37 155 0.0 9.7 0.00 0.00 0.00 28 1020.6
20260905215000 36 200 0.0 11.3 0.00 0.00 0.00 28 1020.8
20260905214455 36 122 3.2 29.0 0.00 0.00 0.00 29 1020.9
20260905213955 37 193 0.0 24.1 0.00 0.00 0.00 29 1021.2
20260905213452 37 201 0.0 0.0 0.00 0.00 0.00 28 1020.9
20260905212947 37 196 1.6 4.8 0.00 0.00 0.00 28 1021.1
20260905212441 37 221 0.0 3.2 0.00 0.00 0.00 27 1021.1